Lid_Strength_Index
6 6 6 5 5 5 5 5 5 5 5 5 4 4 3 4 5 9 13 10 8 4 4 6 6 7 8 10 9 8 13 15 14 14 14 11 13 11 10 11 12 12 13 12 11
5 5 5 4 4 5 4 4 5 5 5 5 5 4 4 3 10 14 9 6 6 5 9 9 9 9 9 9 9 11 13 13 12 13 13 12 12 12 12 14 15 14 12 11 11
6 6 5 4 4 4 4 4 4 5 5 5 5 5 4 4 10 14 8 7 6 7 9 9 8 9 10 10 11 11 13 12 13 13 13 13 13 14 15 16 16 16 14 12 12
6 6 5 4 4 4 3 3 3 3 4 4 4 4 3 4 15 13 8 7 7 8 9 9 9 11 11 12 10 12 12 12 13 14 14 15 13 16 15 16 14 14 13 13 13
5 5 4 3 3 2 2 3 4 3 3 4 4 3 6 11 14 10 7 8 9 9 9 9 11 11 12 11 11 12 13 13 14 13 15 14 15 16 16 14 13 13 13 14 14
5 5 4 4 4 3 4 3 3 3 3 3 3 5 9 13 10 9 9 9 8 8 9 9 10 9 11 12 12 11 12 13 14 14 15 15 15 13 14 13 13 12 13 13 13
5 5 4 4 3 3 4 3 2 2 3 6 7 8 12 15 10 9 9 9 8 9 10 10 9 9 10 12 11 11 14 13 16 15 15 15 15 16 14 13 13 13 14 13 13
5 5 5 4 4 4 4 5 4 5 6 7 6 8 15 10 10 10 9 9 9 9 10 10 10 11 12 12 12 14 14 17 16 15 15 16 18 15 14 14 14 14 15 14 13
5 5 5 5 4 4 4 5 6 7 7 5 7 9 15 9 12 11 10 11 9 9 10 9 10 13 13 14 17 17 18 18 18 15 16 16 17 14 14 14 15 15 15 14 14
5 5 5 5 5 4 4 5 5 6 7 9 9 11 13 14 12 11 10 10 10 10 10 11 12 15 16 17 20 19 19 18 19 17 16 16 16 14 14 14 16 16 15 14 14
5 5 6 5 5 5 4 5 8 10 12 14 14 14 14 12 10 12 11 11 10 11 15 14 17 20 19 18 17 17 18 19 18 16 17 17 17 15 14 15 16 16 15 15 14
5 5 6 5 5 5 5 9 11 10 16 12 13 13 12 12 14 13 11 13 13 16 14 16 20 17 16 16 17 17 19 19 17 16 17 17 17 15 14 14 15 15 15 15 14
5 5 6 6 6 6 8 11 8 8 13 15 13 14 14 12 16 15 13 13 15 17 16 18 18 16 16 17 17 18 20 20 20 17 16 18 19 16 14 13 13 14 14 14 15
5 5 7 6 7 7 10 9 7 7 13 16 15 14 13 13 16 13 12 14 15 17 17 18 17 17 18 19 18 19 18 18 18 20 21 17 23 18 15 15 13 14 15 16 15
5 6 7 6 7 8 9 7 6 8 20 16 15 11 12 14 15 15 12 13 17 17 17 20 19 19 18 19 18 19 18 18 18 20 21 19 22 20 15 16 15 15 15 16 16
6 7 7 7 7 9 7 6 7 13 22 20 15 16 16 15 15 14 14 13 14 16 17 18 16 17 18 17 18 17 18 18 18 19 24 19 21 21 18 16 15 15 15 15 16
6 8 9 8 10 7 6 8 14 18 17 20 18 16 16 17 17 16 16 17 18 20 19 18 18 17 17 19 17 18 19 22 24 25 22 19 22 21 16 15 15 15 15 16 16
7 8 8 8 7 6 7 11 20 17 19 17 17 16 17 17 18 17 17 18 18 18 18 19 21 19 18 19 20 19 20 23 27 23 23 20 23 20 14 14 14 15 15 15 15
8 8 9 9 8 8 9 16 15 16 16 17 17 17 19 17 18 17 18 18 18 18 19 21 21 18 17 17 19 20 21 20 25 25 26 21 19 16 14 15 15 16 15 16 16
8 10 12 9 8 8 13 14 17 15 15 15 17 17 20 21 19 19 18 17 18 16 18 19 23 18 18 18 18 20 18 23 22 29 28 20 21 20 17 17 15 16 16 15 15
9 11 11 9 9 11 15 16 17 14 14 16 16 20 16 20 18 18 17 18 17 18 16 20 20 20 19 21 20 22 22 21 21 23 26 25 23 18 17 15 16 15 15 16 16
10 13 11 10 12 13 15 17 14 15 14 15 15 16 17 17 19 19 18 17 16 17 19 18 20 23 21 19 19 20 20 20 25 25 24 24 25 15 16 16 16 17 16 16 15
10 11 10 11 14 15 18 17 15 16 16 16 16 16 16 17 21 17 17 16 16 17 21 20 22 25 23 22 21 25 19 18 20 21 25 27 23 16 16 17 16 16 16 15 15
10 14 12 11 14 14 17 17 18 14 15 15 16 16 17 18 17 22 18 17 15 16 15 15 23 25 23 23 23 27 23 19 24 28 24 22 20 19 18 17 17 17 16 15 15
12 14 17 14 16 15 16 16 17 18 17 15 17 18 20 24 20 21 17 18 16 15 16 19 28 26 24 21 21 24 26 22 22 22 24 20 19 18 17 17 16 16 16 16 16
12 13 17 19 18 17 16 17 16 16 18 19 20 16 17 23 19 21 19 18 19 18 20 20 26 28 29 20 20 23 22 22 20 20 21 20 21 15 15 15 17 16 16 16 16
11 12 12 15 17 17 15 15 15 15 15 15 16 16 17 17 16 17 15 15 16 20 20 23 25 30 30 21 22 26 23 22 20 23 20 23 19 17 18 16 17 16 16 16 15